Location: Chiroubles
(46.1812°N, 4.6660°E)
Time: 02:51:28
(UTC+00:00)

Timation 2 Rocket - Pass Details

Date: 15 August 2020
Orbit: 907 x 1075 km, 70.0° (Epoch: 27 September)

Event Time Altitude Azimuth Distance (km) Brightness Sun altitude
Exits shadow 22:39:51 43° 78° (ENE) 1,285 4.5 -28.3°
Drops below altitude 10° 22:44:27 10° 38° (NE) 2,611 6.6 -28.6°
Sets 22:47:00 0° 33° (NNE) 3,549 7.5 -28.7°
